GEC8464 LOWW-EDDF

Flight info

Callsign GEC8464
Flight time 0h 59m
Altitude 30000
Route LUGEM DCT SUBEN T161 DEBHI
Aircraft B77L/H-SDE1E2E3FGHIJ2J3J4J5M1RWXY/LB1D1

Departure

Time 2026-05-05 19:21
Airport Vienna International Airport (LOWW)

Arrival

Time 2026-05-05 20:20
Airport Frankfurt Main Airport (EDDF)
Time Latitude Longitude Altitude Speed Heading
2026-05-05 18:57 48.12179 16.54829 615 ft 0 kts 26°
2026-05-05 19:09 48.12168 16.54822 614 ft 2 kts 26°
2026-05-05 19:09 48.12157 16.54813 614 ft 1 kts 26°
2026-05-05 19:09 48.12148 16.54807 614 ft 2 kts 23°
2026-05-05 19:10 48.12134 16.54801 614 ft 2 kts
2026-05-05 19:10 48.12119 16.54802 614 ft 2 kts 349°
2026-05-05 19:10 48.12107 16.54808 614 ft 2 kts 336°
2026-05-05 19:10 48.12096 16.54817 614 ft 2 kts 323°
2026-05-05 19:11 48.12087 16.54829 614 ft 2 kts 310°
2026-05-05 19:11 48.12080 16.54844 614 ft 1 kts 298°
2026-05-05 19:11 48.12078 16.54849 614 ft 0 kts 295°
2026-05-05 19:13 48.12078 16.54848 614 ft 0 kts 295°
2026-05-05 19:14 48.12086 16.54825 614 ft 6 kts 296°
2026-05-05 19:14 48.12110 16.54752 614 ft 11 kts 296°
2026-05-05 19:14 48.12139 16.54662 614 ft 9 kts 291°
2026-05-05 19:14 48.12123 16.54602 614 ft 7 kts 228°
2026-05-05 19:15 48.12110 16.54549 614 ft 6 kts 268°
2026-05-05 19:15 48.12118 16.54487 614 ft 7 kts 291°
2026-05-05 19:15 48.12142 16.54410 614 ft 10 kts 296°
2026-05-05 19:15 48.12174 16.54310 614 ft 13 kts 296°
2026-05-05 19:16 48.12213 16.54191 614 ft 15 kts 296°
2026-05-05 19:16 48.12257 16.54057 614 ft 17 kts 296°
2026-05-05 19:16 48.12300 16.53923 614 ft 15 kts 296°
2026-05-05 19:16 48.12339 16.53803 614 ft 14 kts 296°
2026-05-05 19:17 48.12376 16.53691 614 ft 13 kts 296°
2026-05-05 19:17 48.12408 16.53590 614 ft 9 kts 296°
2026-05-05 19:17 48.12426 16.53511 614 ft 8 kts 270°
2026-05-05 19:17 48.12401 16.53449 614 ft 7 kts 216°
2026-05-05 19:18 48.12357 16.53408 614 ft 8 kts 210°
2026-05-05 19:18 48.12311 16.53374 614 ft 6 kts 204°
2026-05-05 19:18 48.12277 16.53372 614 ft 4 kts 149°
2026-05-05 19:18 48.12260 16.53403 614 ft 4 kts 125°
2026-05-05 19:19 48.12254 16.53421 614 ft 0 kts 116°
2026-05-05 19:19 48.12254 16.53422 614 ft 1 kts 116°
2026-05-05 19:20 48.12212 16.53550 614 ft 41 kts 119°
2026-05-05 19:20 48.12013 16.54159 614 ft 106 kts 116°
2026-05-05 19:20 48.11648 16.55278 618 ft 163 kts 119°
2026-05-05 19:20 48.11173 16.56748 1059 ft 178 kts 122°
2026-05-05 19:21 48.10667 16.58266 1804 ft 183 kts 124°
2026-05-05 19:21 48.09969 16.59767 2231 ft 189 kts 149°
2026-05-05 19:21 48.08774 16.60456 2415 ft 207 kts 182°
2026-05-05 19:21 48.07410 16.59933 2816 ft 225 kts 212°
2026-05-05 19:22 48.06338 16.58376 3532 ft 236 kts 230°
2026-05-05 19:22 48.05400 16.56568 4420 ft 239 kts 232°
2026-05-05 19:22 48.04423 16.54685 5199 ft 246 kts 231°
2026-05-05 19:22 48.03661 16.52610 5934 ft 255 kts 253°
2026-05-05 19:23 48.03414 16.50205 6750 ft 259 kts 262°
2026-05-05 19:23 48.03263 16.47807 7519 ft 262 kts 263°
2026-05-05 19:23 48.03113 16.45333 8160 ft 270 kts 263°
2026-05-05 19:23 48.02963 16.42845 8810 ft 276 kts 263°
2026-05-05 19:24 48.02813 16.40348 9384 ft 283 kts 264°
2026-05-05 19:24 48.02669 16.37666 9999 ft 291 kts 268°
2026-05-05 19:24 48.02805 16.35027 10370 ft 307 kts 279°
2026-05-05 19:24 48.03173 16.32272 10766 ft 322 kts 280°
2026-05-05 19:25 48.03581 16.29361 11196 ft 337 kts 279°
2026-05-05 19:25 48.04001 16.26262 11654 ft 351 kts 279°
2026-05-05 19:25 48.04434 16.22975 12166 ft 364 kts 279°
2026-05-05 19:25 48.04863 16.19686 12859 ft 370 kts 279°
2026-05-05 19:26 48.05289 16.16410 13657 ft 374 kts 279°
2026-05-05 19:26 48.05745 16.12895 14539 ft 377 kts 278°
2026-05-05 19:26 48.06177 16.09544 15401 ft 380 kts 278°
2026-05-05 19:26 48.06627 16.06054 16254 ft 383 kts 278°
2026-05-05 19:27 48.07084 16.02496 17115 ft 387 kts 278°
2026-05-05 19:27 48.07546 15.98882 17911 ft 391 kts 278°
2026-05-05 19:27 48.08013 15.95228 18703 ft 396 kts 278°
2026-05-05 19:27 48.08485 15.91518 19482 ft 399 kts 278°
2026-05-05 19:28 48.08938 15.87953 20224 ft 403 kts 278°
2026-05-05 19:28 48.09472 15.84424 20888 ft 408 kts 282°
2026-05-05 19:28 48.10130 15.80688 21584 ft 412 kts 283°
2026-05-05 19:28 48.10795 15.76910 22283 ft 416 kts 283°
2026-05-05 19:29 48.11469 15.73054 23014 ft 418 kts 283°
2026-05-05 19:29 48.12140 15.69175 23673 ft 422 kts 283°
2026-05-05 19:29 48.12826 15.65186 24329 ft 427 kts 283°
2026-05-05 19:29 48.13511 15.61183 24955 ft 431 kts 283°
2026-05-05 19:30 48.14199 15.57141 25580 ft 435 kts 283°
2026-05-05 19:30 48.14900 15.53009 26222 ft 439 kts 283°
2026-05-05 19:30 48.15595 15.48898 26838 ft 443 kts 283°
2026-05-05 19:30 48.16307 15.44661 27432 ft 447 kts 283°
2026-05-05 19:31 48.17010 15.40469 28040 ft 451 kts 283°
2026-05-05 19:31 48.17693 15.36191 28666 ft 455 kts 281°
2026-05-05 19:31 48.18272 15.31958 29319 ft 457 kts 279°
2026-05-05 19:31 48.18837 15.27752 29733 ft 459 kts 279°
2026-05-05 19:32 48.19947 15.19515 29770 ft 468 kts 279°
2026-05-05 19:32 48.20523 15.15232 29760 ft 481 kts 280°
2026-05-05 19:32 48.21112 15.10860 29766 ft 486 kts 279°
2026-05-05 19:33 48.22292 15.02087 29769 ft 486 kts 279°
2026-05-05 19:33 48.23460 14.93371 29769 ft 485 kts 279°
2026-05-05 19:34 48.24608 14.84756 29772 ft 485 kts 279°
2026-05-05 19:35 48.26339 14.71675 29783 ft 485 kts 279°
2026-05-05 19:35 48.27489 14.62917 29787 ft 485 kts 279°
2026-05-05 19:36 48.28635 14.54137 29778 ft 484 kts 279°
2026-05-05 19:36 48.29777 14.45337 29779 ft 486 kts 279°
2026-05-05 19:37 48.30954 14.36202 29782 ft 486 kts 279°
2026-05-05 19:37 48.32219 14.26319 29784 ft 486 kts 278°
2026-05-05 19:38 48.33389 14.17115 29789 ft 487 kts 278°
2026-05-05 19:38 48.34583 14.07661 29790 ft 487 kts 278°
2026-05-05 19:39 48.35822 13.97774 29796 ft 489 kts 278°
2026-05-05 19:39 48.37071 13.87740 29796 ft 488 kts 278°
2026-05-05 19:40 48.38310 13.77707 29799 ft 489 kts 278°
2026-05-05 19:40 48.39531 13.67747 29805 ft 489 kts 278°
2026-05-05 19:41 48.40732 13.57874 29807 ft 490 kts 278°
2026-05-05 19:41 48.41945 13.47835 29813 ft 490 kts 278°
2026-05-05 19:42 48.43143 13.37832 29810 ft 490 kts 278°
2026-05-05 19:42 48.45103 13.28140 29809 ft 497 kts 292°
2026-05-05 19:43 48.48243 13.18796 29815 ft 498 kts 294°
2026-05-05 19:43 48.51384 13.09547 29814 ft 499 kts 294°
2026-05-05 19:44 48.54518 13.00287 29815 ft 500 kts 294°
2026-05-05 19:44 48.57471 12.91535 29811 ft 500 kts 294°
2026-05-05 19:45 48.60323 12.83050 29811 ft 501 kts 294°
2026-05-05 19:45 48.63376 12.73937 29817 ft 501 kts 294°
2026-05-05 19:46 48.66512 12.64544 29814 ft 504 kts 294°
2026-05-05 19:46 48.69526 12.55484 29816 ft 504 kts 294°
2026-05-05 19:47 48.72635 12.46100 29826 ft 505 kts 294°
2026-05-05 19:47 48.75683 12.36870 29818 ft 507 kts 294°
2026-05-05 19:48 48.78811 12.27360 29824 ft 507 kts 293°
2026-05-05 19:48 48.81879 12.18001 29826 ft 511 kts 293°
2026-05-05 19:49 48.84798 12.09064 29821 ft 508 kts 293°
2026-05-05 19:49 48.87642 12.00321 29823 ft 512 kts 293°
2026-05-05 19:50 48.90413 11.91780 29828 ft 512 kts 293°
2026-05-05 19:50 48.93294 11.82864 29822 ft 513 kts 293°
2026-05-05 19:51 48.96306 11.73511 29823 ft 514 kts 293°
2026-05-05 19:51 48.99298 11.64183 29836 ft 515 kts 293°
2026-05-05 19:52 49.02347 11.54647 29829 ft 515 kts 293°
2026-05-05 19:52 49.05454 11.44890 29830 ft 517 kts 294°
2026-05-05 19:53 49.07481 11.38501 29833 ft 517 kts 294°
2026-05-05 19:53 49.10272 11.29682 29836 ft 516 kts 292°
2026-05-05 19:54 49.13209 11.20367 29818 ft 517 kts 292°
2026-05-05 19:54 49.16394 11.10223 29824 ft 517 kts 292°
2026-05-05 19:55 49.19532 11.00192 29820 ft 517 kts 293°
2026-05-05 19:55 49.21070 10.95262 29705 ft 505 kts 292°
2026-05-05 19:55 49.22575 10.90431 29117 ft 501 kts 293°
2026-05-05 19:55 49.24086 10.85569 28458 ft 498 kts 292°
2026-05-05 19:56 49.25562 10.80806 27890 ft 494 kts 292°
2026-05-05 19:56 49.27011 10.76123 27357 ft 489 kts 292°
2026-05-05 19:56 49.28455 10.71452 26812 ft 484 kts 292°
2026-05-05 19:56 49.29862 10.66885 26276 ft 479 kts 293°
2026-05-05 19:57 49.31250 10.62374 25733 ft 474 kts 293°
2026-05-05 19:57 49.32635 10.57864 25192 ft 469 kts 292°
2026-05-05 19:57 49.33934 10.53623 24657 ft 465 kts 292°
2026-05-05 19:57 49.35166 10.49593 24144 ft 461 kts 292°
2026-05-05 19:58 49.36494 10.45688 23661 ft 458 kts 300°
2026-05-05 19:58 49.38087 10.42068 23248 ft 454 kts 303°
2026-05-05 19:58 49.39728 10.38509 22842 ft 448 kts 303°
2026-05-05 19:58 49.41324 10.35046 22444 ft 442 kts 303°
2026-05-05 19:59 49.42915 10.31583 22038 ft 436 kts 302°
2026-05-05 19:59 49.44454 10.28221 21648 ft 431 kts 302°
2026-05-05 19:59 49.46018 10.24796 21248 ft 426 kts 302°
2026-05-05 19:59 49.47535 10.21467 20857 ft 420 kts 303°
2026-05-05 20:00 49.49021 10.18199 20476 ft 415 kts 302°
2026-05-05 20:00 49.50572 10.14783 20085 ft 410 kts 302°
2026-05-05 20:00 49.52027 10.11571 19708 ft 405 kts 303°
2026-05-05 20:00 49.53492 10.08332 19334 ft 400 kts 303°
2026-05-05 20:01 49.54906 10.05201 18970 ft 395 kts 303°
2026-05-05 20:01 49.56236 10.02252 18621 ft 391 kts 303°
2026-05-05 20:01 49.57587 9.99254 18271 ft 388 kts 303°
2026-05-05 20:01 49.58877 9.96387 17943 ft 387 kts 303°
2026-05-05 20:02 49.60147 9.93560 17614 ft 386 kts 303°
2026-05-05 20:02 49.61395 9.90780 17288 ft 383 kts 303°
2026-05-05 20:02 49.62687 9.87898 16951 ft 380 kts 303°
2026-05-05 20:02 49.63983 9.85029 16613 ft 376 kts 305°
2026-05-05 20:03 49.65441 9.82474 16293 ft 375 kts 313°
2026-05-05 20:03 49.67045 9.80064 15965 ft 371 kts 314°
2026-05-05 20:03 49.68601 9.77762 15585 ft 369 kts 314°
2026-05-05 20:03 49.70189 9.75422 15198 ft 366 kts 314°
2026-05-05 20:04 49.71728 9.73155 14886 ft 364 kts 314°
2026-05-05 20:04 49.73376 9.70730 14576 ft 365 kts 314°
2026-05-05 20:04 49.74997 9.68346 14267 ft 364 kts 314°
2026-05-05 20:04 49.76648 9.65921 13952 ft 363 kts 314°
2026-05-05 20:05 49.78227 9.63608 13656 ft 361 kts 314°
2026-05-05 20:05 49.79818 9.61283 13350 ft 359 kts 314°
2026-05-05 20:05 49.81353 9.59046 13054 ft 356 kts 314°
2026-05-05 20:05 49.82917 9.56759 12753 ft 353 kts 314°
2026-05-05 20:06 49.84472 9.54489 12452 ft 352 kts 314°
2026-05-05 20:06 49.86023 9.52219 12150 ft 350 kts 314°
2026-05-05 20:06 49.87500 9.50056 11863 ft 349 kts 314°
2026-05-05 20:06 49.89002 9.47859 11565 ft 347 kts 314°
2026-05-05 20:07 49.90454 9.45738 11277 ft 344 kts 314°
2026-05-05 20:07 49.91921 9.43602 10987 ft 342 kts 314°
2026-05-05 20:07 49.93392 9.41463 10828 ft 338 kts 314°
2026-05-05 20:07 49.94835 9.39361 10809 ft 341 kts 314°
2026-05-05 20:08 49.96288 9.37246 10715 ft 333 kts 314°
2026-05-05 20:08 49.97710 9.35180 10607 ft 321 kts 314°
2026-05-05 20:08 49.99110 9.33152 10533 ft 307 kts 314°
2026-05-05 20:08 50.00451 9.31221 10484 ft 294 kts 314°
2026-05-05 20:09 50.01765 9.29341 10309 ft 284 kts 314°
2026-05-05 20:09 50.03022 9.27546 9967 ft 282 kts 314°
2026-05-05 20:09 50.04293 9.25725 9642 ft 281 kts 314°
2026-05-05 20:09 50.05570 9.23889 9306 ft 281 kts 314°
2026-05-05 20:10 50.06854 9.22031 9023 ft 279 kts 314°
2026-05-05 20:10 50.08118 9.20189 8730 ft 278 kts 314°
2026-05-05 20:10 50.09384 9.18339 8422 ft 277 kts 314°
2026-05-05 20:10 50.10683 9.16437 8109 ft 276 kts 314°
2026-05-05 20:11 50.11969 9.14545 7792 ft 275 kts 313°
2026-05-05 20:11 50.13226 9.12698 7519 ft 272 kts 314°
2026-05-05 20:11 50.14259 9.10668 7449 ft 256 kts 292°
2026-05-05 20:11 50.14650 9.08363 7411 ft 240 kts 276°
2026-05-05 20:12 50.14809 9.06121 7294 ft 233 kts 274°
2026-05-05 20:12 50.14938 9.03961 7024 ft 233 kts 274°
2026-05-05 20:12 50.15035 9.01683 6762 ft 231 kts 268°
2026-05-05 20:12 50.14939 8.99515 6544 ft 231 kts 261°
2026-05-05 20:13 50.14693 8.97362 6328 ft 230 kts 257°
2026-05-05 20:13 50.14346 8.95213 6100 ft 229 kts 254°
2026-05-05 20:13 50.13952 8.93157 5972 ft 226 kts 251°
2026-05-05 20:13 50.13515 8.91085 5845 ft 233 kts 251°
2026-05-05 20:14 50.13047 8.88992 5590 ft 231 kts 251°
2026-05-05 20:14 50.12579 8.86954 5302 ft 230 kts 250°
2026-05-05 20:14 50.12099 8.84902 5006 ft 229 kts 250°
2026-05-05 20:14 50.11626 8.82900 4688 ft 227 kts 250°
2026-05-05 20:15 50.11164 8.80958 4404 ft 222 kts 250°
2026-05-05 20:15 50.10712 8.79064 4151 ft 215 kts 250°
2026-05-05 20:15 50.10279 8.77253 3903 ft 210 kts 250°
2026-05-05 20:15 50.09853 8.75461 3650 ft 204 kts 250°
2026-05-05 20:16 50.09439 8.73722 3387 ft 197 kts 250°
2026-05-05 20:16 50.09043 8.72059 3144 ft 190 kts 250°
2026-05-05 20:16 50.08652 8.70412 2905 ft 183 kts 250°
2026-05-05 20:16 50.08274 8.68822 2708 ft 178 kts 250°
2026-05-05 20:17 50.07902 8.67260 2476 ft 176 kts 250°
2026-05-05 20:17 50.07538 8.65731 2243 ft 165 kts 250°
2026-05-05 20:17 50.07198 8.64305 2032 ft 157 kts 250°
2026-05-05 20:17 50.06876 8.62954 1818 ft 150 kts 251°
2026-05-05 20:18 50.06567 8.61654 1559 ft 143 kts 250°
2026-05-05 20:18 50.06262 8.60385 1326 ft 145 kts 250°
2026-05-05 20:18 50.05947 8.59064 1170 ft 148 kts 250°
2026-05-05 20:18 50.05633 8.57747 1006 ft 144 kts 249°
2026-05-05 20:19 50.05316 8.56454 832 ft 143 kts 249°
2026-05-05 20:19 50.05013 8.55152 677 ft 147 kts 250°
2026-05-05 20:19 50.04699 8.53828 493 ft 144 kts 249°
2026-05-05 20:19 50.04395 8.52590 381 ft 133 kts 249°
2026-05-05 20:20 50.04140 8.51518 378 ft 99 kts 250°
2026-05-05 20:20 50.03971 8.50808 378 ft 58 kts 250°
2026-05-05 20:20 50.03874 8.50446 378 ft 31 kts 237°
2026-05-05 20:20 50.03751 8.50259 378 ft 21 kts 221°
2026-05-05 20:21 50.03672 8.50183 378 ft 11 kts 178°
2026-05-05 20:21 50.03629 8.50256 378 ft 10 kts 91°
2026-05-05 20:21 50.03646 8.50357 378 ft 12 kts 71°
2026-05-05 20:21 50.03677 8.50486 378 ft 18 kts 69°
2026-05-05 20:22 50.03724 8.50678 378 ft 27 kts 70°
2026-05-05 20:22 50.03774 8.50890 378 ft 18 kts 70°
2026-05-05 20:22 50.03812 8.51051 378 ft 17 kts 70°
2026-05-05 20:22 50.03857 8.51237 378 ft 18 kts 70°
2026-05-05 20:23 50.03894 8.51397 378 ft 18 kts 70°
2026-05-05 20:23 50.03933 8.51557 378 ft 18 kts 70°
2026-05-05 20:23 50.03972 8.51721 378 ft 19 kts 70°
2026-05-05 20:23 50.04015 8.51898 378 ft 19 kts 70°
2026-05-05 20:24 50.04055 8.52070 378 ft 19 kts 70°
2026-05-05 20:24 50.04097 8.52239 378 ft 18 kts 70°
2026-05-05 20:24 50.04136 8.52404 378 ft 19 kts 70°
2026-05-05 20:24 50.04176 8.52575 378 ft 19 kts 70°
2026-05-05 20:25 50.04217 8.52744 378 ft 19 kts 70°
2026-05-05 20:25 50.04257 8.52913 378 ft 19 kts 70°
2026-05-05 20:25 50.04299 8.53084 378 ft 19 kts 69°
2026-05-05 20:25 50.04342 8.53264 378 ft 20 kts 71°
2026-05-05 20:26 50.04376 8.53423 387 ft 15 kts 75°
2026-05-05 20:26 50.04395 8.53557 395 ft 14 kts 82°
2026-05-05 20:26 50.04408 8.53718 397 ft 20 kts 79°
2026-05-05 20:26 50.04420 8.53921 397 ft 24 kts 84°
2026-05-05 20:27 50.04434 8.54130 397 ft 21 kts 84°
2026-05-05 20:27 50.04445 8.54304 397 ft 17 kts 85°
2026-05-05 20:27 50.04450 8.54464 397 ft 17 kts 95°
2026-05-05 20:27 50.04413 8.54628 386 ft 21 kts 124°
2026-05-05 20:28 50.04310 8.54768 378 ft 21 kts 154°
2026-05-05 20:28 50.04192 8.54838 378 ft 19 kts 161°
2026-05-05 20:28 50.04099 8.54890 378 ft 11 kts 159°
2026-05-05 20:28 50.04039 8.54924 378 ft 9 kts 172°
2026-05-05 20:29 50.03992 8.54884 378 ft 9 kts 237°
2026-05-05 20:29 50.03966 8.54801 378 ft 9 kts 248°
2026-05-05 20:29 50.03963 8.54717 378 ft 8 kts 301°
2026-05-05 20:29 50.04007 8.54673 378 ft 8 kts 339°
2026-05-05 20:30 50.04025 8.54633 378 ft 5 kts 260°
2026-05-05 20:30 50.04015 8.54590 378 ft 3 kts 248°
2026-05-05 20:30 50.04006 8.54557 378 ft 2 kts 249°
2026-05-05 20:30 50.04005 8.54554 378 ft 0 kts 249°